Temp_Advection
nan nan nan nan nan nan nan nan nan nan nan nan nan nan nan nan nan nan nan nan nan nan nan nan nan nan nan nan nan nan nan nan nan nan nan nan nan nan nan nan nan nan nan nan nan nan nan nan nan nan nan nan nan nan nan nan nan nan nan nan nan nan nan nan nan nan nan nan nan
nan 1 1 1 0 0 0 0 1 1 1 1 1 1 1 0 0 0 1 1 0 0 0 1 1 1 1 1 1 1 1 1 1 1 1 1 1 1 1 1 1 1 0 1 1 1 1 1 0 0 -0 0 0 0 0 1 1 1 1 1 1 1 1 0 0 1 1 1 nan
nan 1 1 1 0 0 -0 0 1 1 1 1 1 1 1 0 0 0 1 1 1 0 0 1 1 1 1 1 1 1 1 1 1 1 1 1 1 1 1 1 1 1 1 1 1 0 1 0 0 0 -0 -0 0 0 0 1 1 1 1 1 1 1 1 0 0 1 1 1 nan
nan 1 1 0 -0 -0 0 0 1 1 2 2 1 1 0 0 0 0 1 1 0 0 0 1 1 1 1 1 1 1 1 1 1 0 1 1 1 1 1 1 1 1 1 1 1 1 1 0 0 -0 0 0 0 0 0 1 1 1 1 1 1 1 1 1 0 1 0 0 nan
nan 1 1 0 0 0 0 1 1 2 2 1 1 0 -0 0 0 1 1 0 0 1 1 1 0 1 1 1 1 1 1 1 1 0 0 1 1 1 1 1 1 1 1 1 1 1 1 0 0 -0 -0 0 0 0 0 1 1 1 1 1 1 1 1 1 1 1 1 0 nan
nan 1 1 1 0 0 0 1 1 2 2 1 0 -0 -0 0 1 1 1 1 1 1 0 0 1 1 1 1 1 1 1 1 1 1 0 0 1 1 1 1 1 1 1 1 1 1 1 0 0 -0 -0 -0 0 0 1 1 0 0 0 1 1 1 1 1 1 1 1 0 nan
nan 2 1 1 0 0 0 1 1 1 1 1 -0 -0 0 1 1 1 1 1 1 1 0 0 1 1 1 1 1 1 1 1 1 1 0 0 0 1 1 1 1 1 1 1 1 1 0 0 0 0 0 0 -0 0 1 1 0 0 0 0 1 1 1 1 1 1 1 0 nan
nan 2 1 1 0 0 0 1 1 1 1 0 0 0 1 1 1 1 0 0 0 1 1 0 0 1 1 1 1 1 1 1 1 1 0 0 0 1 1 1 1 1 1 1 1 0 0 0 0 0 0 -0 -0 -0 0 1 0 0 0 0 1 1 1 1 1 1 1 0 nan
nan 2 1 1 0 0 0 1 1 1 0 0 0 1 1 1 1 1 0 0 1 1 0 0 1 1 1 1 1 1 1 1 1 1 0 0 0 0 1 1 1 1 1 1 0 0 0 0 0 0 0 0 -0 -0 0 0 1 0 0 0 0 1 1 1 1 1 1 0 nan
nan 2 1 1 0 0 0 1 1 0 0 0 1 1 1 1 1 1 1 1 1 0 0 0 1 1 1 1 1 1 1 1 1 1 1 0 0 0 1 1 1 1 1 1 1 0 0 0 0 0 0 0 -0 -0 -0 0 0 0 0 0 0 0 1 1 1 1 1 1 nan
nan 2 1 1 0 0 0 0 0 0 0 1 1 1 1 1 1 1 1 1 0 0 1 1 1 0 1 1 1 1 1 1 0 0 0 0 1 0 0 1 1 1 1 1 1 0 0 0 0 0 0 0 0 -0 -0 0 0 0 0 0 0 0 0 1 1 1 1 1 nan
nan 2 2 1 1 0 0 0 0 0 0 0 1 1 1 1 1 1 1 0 -0 0 1 1 1 0 1 1 1 1 1 0 0 0 0 0 1 1 1 0 1 0 1 1 1 0 0 0 0 0 0 0 0 0 0 0 0 0 0 0 0 0 0 0 1 1 1 1 nan
nan 2 2 1 1 0 0 0 0 0 0 0 1 1 1 1 1 1 0 -0 0 1 1 1 1 0 1 1 1 1 1 1 0 0 0 0 1 1 1 1 1 1 1 1 1 1 0 0 0 0 -0 0 0 0 0 0 0 0 0 0 0 0 0 0 1 1 1 1 nan
nan 2 2 1 1 0 -0 -0 0 0 0 0 1 1 1 1 1 1 0 -0 0 1 1 1 1 1 1 1 1 1 1 1 0 0 0 0 1 1 0 1 1 1 1 1 1 1 1 1 0 0 -0 -0 0 0 1 1 0 0 0 0 0 0 0 0 0 0 0 0 nan
nan 2 2 1 1 0 0 -0 -0 -0 0 0 1 1 1 1 1 1 0 -0 0 1 1 1 1 1 1 1 1 1 1 1 0 0 0 0 1 0 0 0 1 1 0 1 1 1 1 1 1 0 -0 -0 -0 0 1 1 1 1 0 0 0 0 0 0 0 0 0 0 nan
nan 2 2 1 1 0 -0 -0 -0 -0 -0 0 1 1 2 1 1 1 0 0 0 0 1 1 1 1 1 1 1 1 1 1 0 0 0 0 1 0 0 0 1 1 1 0 1 1 1 1 1 0 0 -0 -0 0 0 1 1 1 0 1 0 0 0 0 0 0 0 0 nan
nan 2 1 1 1 0 -0 -0 -1 -0 -0 1 1 2 2 1 1 1 0 0 0 0 1 1 1 1 1 1 1 1 0 0 0 0 0 0 0 0 0 0 1 1 0 0 0 1 1 1 1 0 0 0 0 0 0 0 0 1 1 1 0 0 0 0 0 0 0 0 nan
nan 2 2 1 1 0 -0 -0 -1 -0 0 1 1 2 2 1 1 1 0 0 0 0 1 1 1 1 1 1 1 1 0 0 0 0 0 0 0 0 0 0 1 1 1 0 0 1 1 1 1 1 0 0 0 0 0 0 0 0 1 1 0 0 0 0 0 0 0 0 nan
nan 2 2 1 1 0 -0 -0 -0 -0 0 1 2 2 2 1 1 1 0 0 0 0 1 1 1 1 1 1 1 1 0 0 0 0 0 0 0 0 0 0 1 1 1 0 0 0 0 1 1 1 0 0 0 0 0 0 0 1 1 1 0 0 0 0 0 0 0 0 nan
nan 2 2 1 1 1 0 -0 -0 0 1 1 2 2 2 1 1 0 0 0 1 1 0 0 1 1 1 1 1 1 1 0 0 0 0 0 0 0 0 0 0 0 0 0 0 0 0 0 0 0 0 0 0 0 0 0 0 1 1 1 0 0 0 0 0 0 0 0 nan
nan 2 2 2 1 1 0 0 0 1 1 1 1 2 1 1 1 0 0 1 1 0 -0 0 0 1 1 1 1 1 1 0 0 0 0 1 0 0 0 0 0 0 0 1 0 0 0 0 0 0 0 0 0 0 0 0 1 1 1 1 0 0 0 0 0 0 0 0 nan
nan 2 2 2 2 1 1 0 1 1 1 1 1 1 1 1 0 0 1 1 1 -0 -0 0 1 1 1 1 1 1 1 0 0 0 0 0 0 0 0 0 0 0 0 1 0 0 0 0 0 1 0 0 0 0 0 0 0 0 1 1 0 0 0 0 0 0 0 0 nan
nan 3 2 2 2 1 1 1 1 1 1 1 1 1 1 1 1 1 1 1 0 -0 -0 0 1 1 1 1 1 0 0 0 0 0 1 0 0 0 0 0 0 0 0 1 0 0 0 0 0 0 0 0 0 0 0 0 -0 0 0 1 0 0 0 0 0 0 0 0 nan
nan 3 2 2 2 1 1 1 1 1 1 1 1 1 1 1 1 1 1 0 0 -0 0 0 1 1 1 1 1 0 0 0 1 1 1 0 0 0 0 0 0 0 0 1 1 0 0 0 -0 0 0 0 -0 -0 -0 -0 -0 0 0 1 1 0 0 0 0 0 0 0 nan
nan 3 2 2 2 1 1 1 1 1 1 1 1 1 1 1 1 1 1 0 0 0 0 0 1 1 1 1 0 0 0 0 1 1 1 1 0 0 0 0 0 0 1 1 1 0 0 0 0 0 -0 -0 -1 -1 -1 -0 0 0 1 1 1 1 0 0 0 0 0 0 nan
nan 3 2 2 2 1 1 1 1 1 1 1 1 1 1 1 1 1 0 0 0 0 0 0 1 1 1 1 1 0 0 0 1 1 1 1 0 0 0 0 0 0 1 1 1 1 0 1 1 1 1 -0 -1 -1 -1 -0 -0 0 0 1 1 1 0 0 0 0 0 0 nan
nan 3 2 2 2 1 1 1 1 1 1 1 1 1 1 1 1 1 0 0 0 0 0 0 1 1 1 1 0 0 1 1 1 1 0 0 0 0 0 0 0 0 1 1 1 1 0 1 1 1 1 0 -0 -0 -0 -0 -0 -0 0 1 1 1 0 0 -0 -0 -0 -0 nan
nan 3 3 2 2 1 1 1 1 1 1 1 0 1 1 1 1 0 0 0 0 0 0 0 1 1 1 0 0 1 1 1 1 0 0 0 0 0 0 0 0 1 1 1 1 0 0 0 1 1 1 1 0 -0 -1 -1 -1 -0 0 1 1 1 0 0 0 -0 -0 -0 nan
nan 3 3 2 1 1 1 1 1 1 1 1 1 1 1 1 1 1 0 0 -0 -0 0 1 1 1 1 0 0 1 1 1 1 1 0 0 -0 -0 0 0 0 1 1 1 1 0 0 0 0 1 1 1 1 -0 -1 -1 -1 -0 0 1 1 1 0 0 0 -0 -0 -1 nan
nan 3 2 2 2 2 1 1 1 1 1 1 1 1 1 1 1 0 -0 -0 -0 0 1 1 2 1 1 0 0 0 1 1 1 1 0 -0 -0 -0 0 0 0 0 1 1 1 0 0 0 0 1 1 1 1 -0 -1 -1 -1 -0 0 1 1 0 0 0 0 -0 -0 -1 nan
nan 3 2 2 2 1 1 1 1 1 1 1 1 1 0 0 0 0 -0 -0 0 1 1 2 1 1 1 0 0 0 0 1 1 0 0 -0 -0 -0 -0 0 0 0 1 1 1 1 0 0 0 1 1 1 1 -0 -1 -1 -1 -0 0 0 0 0 0 0 0 0 -0 -0 nan
nan 3 2 2 2 2 1 1 1 1 1 1 1 0 0 0 0 0 0 0 1 1 1 1 1 1 1 0 0 0 1 1 1 1 0 -0 -0 -0 -0 -0 0 1 1 1 1 1 0 0 0 1 1 1 1 -0 -0 -1 -1 -0 0 0 0 0 0 0 0 0 -0 -0 nan
nan 3 2 2 2 2 2 2 1 1 1 1 0 0 0 1 1 1 0 0 1 1 1 2 1 1 1 0 0 0 0 1 1 1 0 -0 -0 -0 -0 -0 0 1 1 1 1 1 0 0 1 1 1 2 1 0 -0 -0 -0 -0 0 1 0 0 0 0 0 0 -0 -0 nan
nan 3 2 2 2 2 2 2 2 1 1 0 0 0 1 1 1 0 0 0 1 2 2 2 1 1 0 -0 -0 -0 0 1 1 1 0 -0 -0 -1 -1 -0 0 1 1 1 1 1 1 1 1 1 1 2 1 0 -0 -0 -0 -0 0 1 0 0 0 0 0 0 0 -0 nan
nan 3 3 2 2 2 2 2 2 1 1 0 -0 0 0 1 1 0 1 1 2 2 2 1 1 1 0 -0 -1 -1 0 1 1 1 1 0 -0 -1 -1 -0 0 1 1 1 1 1 1 1 1 1 1 1 1 1 0 -0 -1 -0 0 1 1 0 0 0 0 0 0 -0 nan
nan 3 3 3 2 2 2 2 1 1 1 0 -0 -0 0 1 1 1 1 2 2 2 1 1 1 0 -0 -1 -1 -0 0 1 1 1 0 -0 -0 -1 -1 -0 0 1 1 1 1 1 1 1 1 1 1 1 1 1 0 -0 -1 -0 0 1 1 0 0 0 0 0 0 0 nan
nan 4 3 3 3 2 2 2 2 1 0 -0 -0 0 0 1 1 1 2 2 2 1 1 0 0 0 -0 -0 -1 -0 1 1 1 0 0 -0 -0 -0 -1 -0 0 1 1 0 1 1 1 1 1 1 1 1 1 1 1 0 -0 -1 -0 1 1 0 0 0 0 0 0 0 nan
nan 4 4 3 3 2 2 2 1 1 0 -0 0 0 1 1 1 2 2 2 1 0 0 0 0 0 0 0 -0 0 0 0 0 -0 -0 -0 0 -0 -1 -1 -0 0 1 0 1 1 1 1 1 1 1 1 1 1 1 1 -0 -0 -0 1 1 0 0 0 0 0 0 0 nan
nan 3 3 3 3 2 2 2 1 1 0 0 1 1 1 1 1 2 3 2 1 -0 -0 0 1 1 1 0 -0 -0 -0 0 0 -0 -0 0 0 -0 -1 -1 -0 0 0 0 1 1 1 1 1 1 1 1 1 1 1 1 -0 -1 0 1 1 0 0 0 0 0 -0 0 nan
nan 3 3 3 3 2 2 1 1 1 1 1 1 1 1 1 2 3 3 1 -0 -0 0 1 1 1 1 1 -0 -1 -1 -0 0 0 0 0 0 0 -0 -1 -1 -0 0 0 0 1 1 1 1 1 1 1 1 1 1 1 -0 -0 0 1 1 0 -0 0 0 0 0 0 nan
nan nan nan nan nan nan nan nan nan nan nan nan nan nan nan nan nan nan nan nan nan nan nan nan nan nan nan nan nan nan nan nan nan nan nan nan nan nan nan nan nan nan nan nan nan nan nan nan nan nan nan nan nan nan nan nan nan nan nan nan nan nan nan nan nan nan nan nan nan
Wind_Speed
34 33 32 31 31 30 30 29 28 28 27 27 26 25 24 23 22 21 20 19 19 18 18 18 18 18 18 18 19 19 19 19 19 20 20 20 20 20 20 21 21 21 22 22 23 23 23 24 24 25 26 27 27 27 27 27 28 28 28 28 28 28 28 29 29 29 29 30 30
34 33 32 32 31 31 30 30 29 28 28 27 26 25 24 23 22 21 20 20 19 19 18 18 18 18 18 18 19 19 19 19 19 19 20 20 20 20 20 20 21 21 22 22 22 23 23 24 24 25 26 26 27 27 27 27 27 27 28 28 28 28 28 29 29 29 29 29 30
34 33 33 32 32 31 31 30 29 28 28 27 25 25 24 24 23 22 21 20 19 19 18 18 18 18 18 19 19 19 19 19 19 19 19 19 19 19 20 20 21 21 21 22 22 23 23 24 24 25 26 26 27 27 27 26 26 27 27 27 27 27 28 28 29 29 29 29 29
34 34 33 33 32 32 31 30 29 28 27 26 26 25 25 24 23 22 21 20 20 19 18 18 18 18 19 19 19 19 19 19 19 19 19 19 19 19 20 20 20 21 21 21 22 22 23 24 24 25 26 26 26 26 26 26 26 26 26 26 27 27 28 28 28 28 29 29 29
35 34 33 33 32 31 30 29 29 28 27 27 26 26 26 25 23 22 21 20 19 19 18 18 18 19 19 19 19 19 19 19 19 19 19 19 19 19 19 20 20 20 21 21 22 22 23 24 24 25 25 26 26 26 25 25 25 25 26 26 26 26 27 28 28 28 28 29 29
35 34 33 33 32 31 30 30 29 28 28 28 28 27 26 25 23 22 21 20 19 19 19 19 19 19 19 19 19 19 19 19 19 19 19 19 19 19 19 20 20 20 21 21 22 22 23 24 24 25 25 25 25 25 25 24 24 25 25 26 26 26 27 28 28 28 29 29 28
34 34 34 33 32 32 31 30 29 29 29 29 29 28 26 24 23 22 21 20 20 19 19 19 19 19 19 19 19 19 19 19 19 19 19 19 19 19 19 20 20 20 21 21 22 22 23 23 24 25 25 25 25 25 24 24 24 25 25 26 26 26 27 28 28 28 29 28 28
34 34 34 33 33 32 31 31 30 30 30 30 29 28 26 24 23 22 21 21 20 19 19 19 19 19 19 19 19 19 19 19 19 19 19 19 19 19 19 19 20 20 20 21 22 22 23 23 24 25 25 25 25 25 24 24 24 24 25 25 26 26 27 27 28 28 28 28 28
35 35 34 34 33 33 32 32 31 31 31 30 29 27 26 24 23 23 22 21 20 19 19 19 19 19 19 19 19 19 19 19 19 19 19 19 19 19 19 19 20 20 20 21 21 22 23 23 24 24 25 25 25 25 24 24 24 24 25 26 26 26 27 27 27 28 28 28 29
35 35 34 34 34 33 33 33 32 32 31 30 29 27 26 25 24 23 22 21 20 20 19 19 19 19 19 19 19 19 19 19 19 19 19 19 19 19 19 19 20 20 20 21 21 22 23 23 24 24 24 25 25 25 24 24 24 25 25 26 26 27 27 27 27 27 28 29 30
35 35 35 35 34 34 34 33 33 32 32 30 29 28 26 25 24 23 22 21 21 20 19 19 18 19 19 19 19 19 19 19 19 19 19 19 19 19 19 20 20 20 21 21 21 22 23 23 24 24 24 25 25 25 25 24 24 25 25 26 26 27 27 27 27 28 29 30 32
35 35 35 35 35 35 35 34 34 33 32 31 29 28 27 25 24 22 22 22 21 20 19 19 19 19 19 19 19 19 19 19 19 19 19 19 19 19 19 20 20 20 21 21 22 22 23 23 24 25 25 25 25 25 25 24 25 25 25 26 26 27 28 28 28 29 30 31 33
35 35 36 36 36 36 36 35 34 33 32 31 30 28 27 25 23 23 22 22 21 20 19 19 19 19 19 19 19 19 19 19 19 19 19 19 19 19 19 20 20 20 21 21 22 22 23 23 24 25 25 25 25 25 24 24 25 25 26 26 26 27 28 29 30 30 31 31 32
35 36 36 36 36 37 36 36 35 34 33 31 30 28 26 25 24 23 23 22 21 20 19 19 19 19 19 19 19 19 19 19 19 19 19 19 19 19 19 20 20 20 21 21 22 22 23 23 24 24 25 25 25 24 24 24 24 25 26 26 27 27 28 30 30 30 29 29 29
36 37 37 37 37 37 37 37 36 34 33 32 30 28 26 25 24 23 23 22 21 21 20 19 19 19 19 19 19 19 19 19 19 19 19 19 19 19 19 20 20 21 21 21 22 22 23 23 24 24 25 25 25 24 24 24 24 24 25 26 26 28 29 29 28 27 27 26 27
37 37 38 38 38 38 38 37 36 35 33 31 30 28 26 25 24 24 23 23 22 21 20 20 19 19 19 19 19 19 19 19 19 19 19 19 19 19 20 20 20 21 21 22 22 22 22 23 23 24 24 24 24 24 23 23 24 24 24 25 26 27 28 27 26 25 25 25 26
37 38 38 38 38 38 38 37 36 35 33 31 29 28 26 25 24 24 23 23 22 21 20 19 19 19 19 19 19 19 19 19 19 19 19 19 19 19 20 20 21 21 21 22 22 22 22 22 23 23 24 24 24 23 23 23 23 23 24 24 25 26 25 24 24 23 24 24 26
37 38 38 38 39 38 38 37 36 35 33 31 29 28 26 25 25 24 24 23 22 21 20 19 19 19 19 19 19 19 19 19 19 19 19 19 19 19 20 20 21 21 21 22 22 22 22 22 22 23 23 23 23 23 23 23 23 23 23 24 24 24 23 23 22 22 23 25 26
37 38 38 38 38 38 38 37 36 34 33 31 29 28 26 25 25 25 24 23 22 21 20 20 20 20 20 19 19 19 19 19 19 19 19 19 19 20 20 20 21 21 21 22 22 22 22 22 22 22 22 22 22 22 22 22 22 22 23 24 24 23 22 22 22 22 24 25 27
38 38 38 38 38 38 37 37 36 34 32 31 29 28 27 26 26 25 24 23 22 21 20 20 20 20 20 19 19 19 19 19 19 19 19 19 19 20 20 20 21 21 21 21 21 21 22 21 21 21 21 22 22 22 22 21 21 22 23 24 24 23 22 21 22 23 24 26 27
38 37 37 37 37 37 37 36 35 34 32 31 29 28 27 27 26 26 24 23 22 21 21 21 20 20 20 19 19 19 19 19 19 19 19 19 19 20 20 21 21 21 21 21 21 21 21 21 21 21 21 21 21 21 21 20 21 22 24 25 24 23 22 21 22 23 25 26 28
37 37 36 36 36 36 36 36 35 34 33 31 30 29 28 27 27 26 24 23 22 22 22 21 21 20 20 20 20 20 20 20 20 19 19 19 19 20 20 21 21 21 21 21 21 21 21 20 20 20 20 21 20 20 19 19 21 24 25 25 24 22 22 22 23 24 25 26 27
36 36 36 36 36 36 36 36 35 35 33 32 30 29 29 28 27 26 25 24 23 22 22 21 20 20 20 20 20 20 20 20 19 19 19 19 20 20 20 21 21 21 21 21 20 20 20 20 19 19 19 20 19 18 17 19 23 26 27 26 24 22 22 23 23 24 24 25 27
34 35 36 36 36 37 37 37 36 35 34 32 31 30 29 29 27 26 25 24 23 23 22 21 20 20 20 20 20 20 20 20 19 19 19 19 20 20 21 21 21 21 21 20 20 20 20 20 19 19 19 19 18 17 18 21 24 27 27 25 22 22 23 23 23 23 23 25 26
34 35 36 36 37 37 37 37 37 36 34 33 32 31 30 29 28 26 25 24 24 23 22 21 20 20 21 21 21 21 21 20 20 19 19 19 20 20 21 21 21 21 20 20 20 20 19 19 19 19 19 19 18 17 18 22 25 26 25 23 22 23 24 24 23 22 23 24 26
33 35 36 36 37 37 38 37 37 36 34 33 32 31 30 29 28 26 25 25 24 23 22 21 21 21 21 21 22 21 21 20 20 19 19 20 20 20 21 21 21 21 20 20 19 19 19 18 18 18 18 18 17 17 19 23 25 26 25 24 25 25 25 24 23 22 22 24 25
33 35 36 36 37 38 38 37 36 36 35 34 33 32 31 29 28 26 26 25 24 23 22 21 21 21 22 22 22 22 21 20 20 20 20 20 20 21 21 21 21 20 20 19 19 18 18 18 17 17 17 16 15 16 19 23 26 27 26 27 26 26 24 23 23 22 23 24 25
33 34 35 36 37 38 38 37 37 36 35 34 33 32 31 30 28 27 26 25 24 23 22 21 21 21 22 22 22 22 21 20 20 20 20 20 21 21 21 21 21 20 20 19 19 18 18 17 17 17 16 15 14 15 19 23 26 27 28 27 26 25 23 22 22 22 23 24 25
33 34 35 37 37 38 38 38 37 37 36 35 34 33 31 30 29 27 26 25 24 23 22 21 21 21 22 23 23 22 21 21 20 20 20 21 21 21 21 21 21 20 20 19 18 18 18 17 17 16 15 14 13 15 18 22 26 28 28 27 25 23 21 21 21 22 23 24 25
32 34 35 37 37 38 38 38 37 36 36 35 34 33 32 31 29 28 27 25 24 22 21 20 21 22 23 23 23 23 22 21 21 21 21 21 21 21 21 21 21 21 20 19 18 18 17 17 17 16 15 14 12 14 17 21 25 27 27 25 23 21 20 20 20 21 23 25 26
32 33 35 36 37 38 38 37 37 36 36 36 35 34 33 31 30 28 27 25 23 21 20 20 21 22 23 24 24 23 22 21 21 21 21 21 21 21 21 21 21 21 20 19 18 18 17 17 17 16 15 13 12 13 16 20 24 25 25 23 22 21 20 20 20 21 23 25 26
31 32 34 36 37 38 38 37 37 37 37 36 36 35 33 32 30 28 26 24 22 21 21 21 22 23 24 24 24 24 23 22 21 21 21 22 22 21 21 21 21 20 20 19 18 18 17 17 16 16 14 13 12 13 15 19 22 23 23 22 21 21 21 21 21 22 23 24 26
31 32 34 36 37 38 38 38 38 38 38 37 36 35 34 32 30 29 27 25 22 21 21 21 22 23 24 24 24 24 24 23 22 22 22 22 22 22 21 21 21 20 20 19 18 17 17 17 16 16 14 13 12 12 14 17 20 22 22 22 22 23 23 22 22 22 23 24 25
31 32 33 35 37 37 38 38 38 38 38 38 37 36 34 32 31 29 27 25 22 21 21 22 23 23 24 25 25 25 24 23 22 22 22 22 22 22 21 21 20 20 19 19 18 17 17 16 16 16 15 14 13 12 13 16 19 21 22 23 24 24 24 23 22 22 23 24 25
31 31 33 34 36 37 38 39 39 39 39 39 38 36 35 33 31 30 27 24 21 20 21 22 23 24 25 25 26 25 24 23 22 22 22 22 22 22 21 21 20 20 19 19 18 17 17 16 16 16 15 15 14 12 12 14 18 21 23 25 26 26 25 24 23 23 23 24 24
32 31 32 34 36 37 39 40 40 40 40 39 38 37 35 33 32 30 27 24 21 21 21 23 23 24 25 25 26 25 24 23 22 22 22 22 23 22 21 21 20 20 19 19 18 17 17 16 16 16 16 16 15 14 12 13 17 21 24 26 26 26 26 24 24 24 23 24 24
33 32 32 33 35 37 39 40 40 41 40 40 38 37 35 33 32 30 27 23 21 21 22 23 23 23 24 25 25 25 24 23 23 23 23 23 22 22 22 21 20 20 19 19 18 17 16 16 16 16 16 17 17 15 13 14 17 21 24 26 27 26 26 25 24 24 24 24 23
34 33 32 33 34 36 38 40 41 41 41 40 38 36 35 33 32 30 27 23 21 22 23 23 23 23 23 24 25 25 24 24 24 23 23 23 22 22 22 21 20 19 19 18 18 17 16 16 16 16 17 17 18 17 15 14 17 21 24 26 26 26 25 24 24 24 25 24 23
35 34 33 33 34 36 38 39 41 41 40 39 38 36 35 33 32 29 26 22 21 22 23 23 23 22 23 24 25 25 25 25 24 24 23 23 22 22 22 21 20 19 19 18 17 17 16 16 16 16 17 17 18 17 16 15 17 20 23 25 26 25 24 23 24 25 25 24 23
36 35 34 33 34 35 37 38 40 40 39 38 37 36 35 33 31 28 24 22 22 23 24 23 23 22 23 24 25 26 26 25 25 24 23 23 22 22 22 21 20 19 18 18 17 16 16 15 15 16 16 17 17 17 15 14 16 20 23 25 25 25 24 23 24 24 24 23 22
36 35 34 34 34 35 36 37 38 38 38 38 37 35 34 32 30 27 24 23 23 24 24 23 23 22 23 24 26 26 26 26 25 24 23 23 23 23 22 22 20 19 18 18 17 16 15 15 15 15 16 16 16 15 14 14 17 20 23 24 24 24 23 23 24 24 23 22 21
Wind_Direction
248 248 248 249 250 252 254 255 256 256 256 255 256 258 260 262 265 267 269 272 275 278 281 283 285 286 286 286 286 286 286 287 288 289 291 292 294 296 297 298 299 299 300 300 301 301 302 303 303 303 304 305 307 309 310 310 310 308 306 304 303 302 301 299 298 298 298 298 298
248 248 248 249 250 251 253 254 255 255 255 255 256 257 259 261 264 266 269 271 274 277 280 283 284 286 286 286 285 286 286 287 288 289 291 293 295 296 298 298 299 299 300 300 301 301 302 303 303 303 305 307 308 310 311 312 310 308 306 305 304 303 301 299 299 300 300 300 301
248 248 247 248 249 250 252 253 255 255 255 256 256 257 258 260 263 266 268 271 273 277 280 283 285 285 285 285 285 285 286 287 288 290 292 294 295 296 297 298 298 299 300 300 301 302 303 303 304 304 306 308 309 310 311 312 311 309 307 306 305 303 301 300 301 302 302 302 303
247 247 247 247 248 250 252 254 255 256 256 255 255 256 257 259 262 265 268 270 273 276 280 283 284 284 284 285 285 285 286 287 289 291 292 294 295 296 297 297 298 299 299 300 301 302 303 303 304 305 306 308 309 311 312 312 311 309 307 307 306 304 303 302 303 303 304 304 305
246 246 247 247 249 251 253 254 255 255 254 254 254 254 256 259 262 264 267 269 273 276 279 281 282 283 284 284 284 285 286 287 289 291 292 294 295 296 296 297 298 299 300 301 302 303 303 303 304 305 307 308 310 311 312 312 311 309 309 309 308 307 305 305 305 305 306 306 307
246 246 247 248 249 251 252 253 254 253 252 252 252 254 256 259 261 264 266 269 272 275 277 279 281 282 282 283 284 285 286 288 289 290 292 294 295 296 296 297 298 299 300 301 302 303 303 303 304 305 307 309 310 311 312 312 311 310 310 310 310 309 308 307 308 308 307 307 308
247 246 247 247 248 250 251 252 252 252 251 251 252 254 256 259 261 263 266 268 270 273 275 277 279 281 282 283 284 285 286 287 288 289 291 293 294 295 296 297 299 300 301 302 302 303 303 304 304 306 308 309 310 311 312 312 312 312 312 313 313 312 310 309 309 309 308 308 308
246 246 246 247 248 249 250 251 251 250 250 251 252 254 257 258 260 262 264 266 269 272 274 276 279 280 281 282 283 285 286 287 287 289 290 292 293 295 296 297 298 300 300 301 302 302 303 304 305 307 308 309 310 311 313 313 313 313 313 314 314 313 312 311 310 309 309 308 308
245 245 245 246 247 248 249 250 250 250 250 251 253 254 256 257 259 261 263 266 268 271 273 275 278 279 280 281 282 284 285 286 287 288 289 291 293 295 296 297 298 299 300 301 301 302 303 304 305 307 308 309 310 311 312 313 313 313 314 314 314 314 313 312 311 310 309 309 308
244 244 244 244 245 247 248 249 249 249 250 251 252 253 254 255 257 260 262 265 267 269 272 274 277 278 279 280 282 283 284 284 286 287 289 290 292 294 296 297 298 299 300 301 301 302 303 304 306 307 308 309 310 311 312 313 313 314 314 314 314 314 314 313 312 311 310 309 308
244 244 244 244 245 246 247 248 249 249 250 251 252 252 253 254 256 259 261 264 266 268 271 274 275 276 278 279 281 281 282 283 284 286 288 290 292 294 296 297 298 299 300 301 301 302 303 305 306 307 308 308 309 310 311 312 313 313 314 314 314 314 314 314 314 313 311 310 309
243 243 244 244 245 246 247 248 248 249 250 250 251 252 253 254 256 258 260 262 265 268 271 272 274 275 277 278 279 280 281 282 283 285 288 290 292 293 295 296 297 298 300 301 301 302 303 304 306 307 308 308 309 309 311 312 312 313 314 315 315 314 314 315 315 315 314 313 312
243 242 242 243 244 245 246 247 248 249 249 250 250 251 252 253 255 257 259 261 264 267 269 271 272 274 275 277 278 278 279 281 283 285 287 290 292 293 294 295 296 298 299 300 301 302 303 304 305 306 307 307 308 309 310 311 312 312 314 315 315 315 316 316 317 317 317 316 314
243 242 242 242 243 244 245 246 247 248 249 249 250 250 251 252 253 255 258 261 264 266 268 269 271 272 274 275 276 277 278 280 282 285 287 289 291 293 294 295 296 297 298 300 301 301 302 303 304 305 305 306 308 309 310 310 311 312 314 315 316 317 317 319 320 320 319 318 317
242 242 241 242 242 243 244 245 246 247 248 249 250 250 250 251 252 254 257 260 263 265 267 268 270 271 273 274 274 276 277 279 281 284 286 289 291 292 294 295 296 297 298 299 300 301 302 303 303 304 304 305 307 308 310 310 311 313 314 315 316 318 320 321 322 322 322 321 319
242 241 241 241 242 242 243 244 246 247 248 249 249 249 249 250 251 253 256 259 261 264 266 267 269 270 271 272 273 275 277 279 281 283 286 288 290 292 293 294 295 296 297 298 300 301 302 302 303 303 303 304 306 308 309 311 312 313 314 316 318 320 322 323 323 323 323 323 322
242 241 241 241 241 241 242 244 245 247 248 249 248 248 248 249 250 252 255 258 260 262 264 266 268 269 269 270 272 273 276 278 280 283 286 288 290 291 292 293 294 295 296 298 299 301 302 302 302 302 303 304 305 307 309 311 312 312 314 317 320 323 324 323 323 323 324 325 326
242 241 241 240 240 241 242 243 245 247 248 248 248 247 247 248 249 252 254 257 259 261 263 265 266 267 268 269 270 272 274 277 279 282 285 287 289 290 292 293 294 295 296 298 299 301 302 302 302 302 303 303 305 307 309 310 311 312 315 319 323 324 324 323 323 324 326 328 330
243 242 241 240 240 240 241 242 244 246 248 248 247 247 246 247 248 251 253 255 258 260 262 264 264 265 267 268 270 271 273 276 279 282 284 286 288 289 291 292 294 295 296 297 299 301 302 303 303 303 303 303 305 306 308 309 309 312 317 322 324 324 323 322 324 326 329 331 332
244 242 242 241 240 240 241 242 244 246 247 247 246 245 245 246 248 250 252 255 257 259 261 262 263 265 266 267 269 270 272 275 278 280 283 285 287 289 290 292 293 294 295 297 299 300 302 302 303 303 303 303 304 306 307 307 310 315 321 325 324 323 322 323 326 328 331 333 334
245 243 243 242 241 241 241 242 244 245 246 246 245 244 244 245 247 249 252 254 256 257 259 261 262 264 265 267 268 269 272 274 276 279 282 284 286 288 289 291 292 293 295 297 299 300 301 302 302 302 302 302 303 304 306 309 314 320 324 325 322 321 321 325 327 330 332 333 335
246 244 244 243 241 241 241 242 243 244 245 244 244 243 243 244 246 248 251 253 254 255 257 260 262 264 265 266 267 269 270 273 275 278 281 283 285 287 288 290 291 293 295 297 299 300 300 301 301 301 301 300 301 303 307 314 321 325 325 323 319 319 322 326 329 330 332 333 334
247 245 243 242 241 241 240 241 242 243 243 243 242 242 242 243 245 247 249 251 252 254 256 259 261 263 265 265 267 268 269 271 274 277 280 282 284 286 287 289 291 293 295 297 298 299 299 300 300 299 299 299 301 305 313 322 327 326 323 317 315 318 323 327 328 329 330 332 333
248 245 243 242 240 240 239 240 240 241 241 241 241 241 241 242 244 246 248 250 251 253 256 258 260 262 263 264 266 267 269 271 273 276 279 281 283 285 286 288 290 293 295 297 297 298 298 299 299 299 300 302 306 312 321 328 329 323 316 311 312 318 322 325 325 326 328 330 332
248 245 243 241 240 239 239 239 239 240 240 240 240 240 241 242 243 245 247 249 250 252 255 257 259 261 262 263 265 266 268 270 273 275 277 279 281 283 285 287 290 292 294 295 296 296 297 297 298 300 303 306 310 317 326 329 325 317 310 309 313 317 320 321 323 325 327 330 332
248 244 242 241 240 239 238 238 239 239 240 240 240 240 240 241 242 244 246 248 249 251 253 255 257 259 261 262 264 265 267 270 272 275 277 278 280 282 284 287 289 292 293 294 294 294 294 294 296 298 301 305 310 319 326 326 319 312 309 310 313 315 317 319 321 324 328 331 333
248 244 242 240 239 239 238 238 238 239 239 239 239 239 239 240 241 243 245 246 248 250 252 254 256 258 260 262 263 265 266 269 271 273 276 278 280 282 284 286 289 291 293 293 293 292 291 291 292 294 296 300 308 319 323 319 312 309 308 310 312 313 316 319 322 325 328 331 333
249 244 242 240 239 238 238 237 237 237 238 238 238 239 239 239 240 241 243 245 247 249 251 253 255 258 260 261 263 264 266 268 269 272 274 277 279 282 284 287 289 291 292 292 291 290 288 289 289 290 292 297 307 317 318 313 308 307 307 308 310 312 316 320 324 326 329 330 332
250 245 242 240 239 238 237 237 236 236 237 238 238 238 238 238 239 240 241 243 245 248 250 253 256 258 260 262 263 264 265 267 268 270 273 275 278 281 284 287 289 291 292 291 289 287 286 286 286 288 290 295 304 311 312 309 307 306 306 307 309 313 318 322 325 328 329 329 330
252 246 242 240 239 238 237 236 235 236 236 237 237 237 237 237 237 238 240 242 244 247 251 254 255 257 260 261 263 263 264 265 267 269 272 274 277 280 283 286 289 290 291 290 287 285 283 283 284 285 287 292 300 307 308 307 306 306 306 307 310 315 320 324 327 328 328 328 329
253 247 243 240 239 237 236 235 235 235 235 236 236 236 236 236 236 237 238 240 243 246 250 252 255 257 259 261 262 262 263 264 266 268 270 273 276 279 282 285 288 290 290 289 286 283 281 281 282 282 284 289 296 303 305 306 305 305 305 308 313 319 323 326 327 327 327 327 327
254 248 243 240 238 237 236 235 234 234 234 234 235 235 235 235 235 236 237 238 240 243 246 250 254 257 260 261 261 262 262 263 264 266 269 272 275 278 282 284 287 289 290 288 284 281 279 279 279 280 280 284 291 298 302 305 305 305 307 311 317 322 325 327 326 326 325 325 326
254 249 244 240 238 236 235 234 233 232 233 233 234 234 234 234 234 234 235 235 237 239 244 249 254 257 259 260 261 261 262 262 264 266 268 271 274 277 280 284 287 289 289 287 284 280 278 277 278 277 277 280 285 292 300 306 307 307 309 314 319 323 325 326 325 324 323 323 324
255 249 244 240 237 235 234 232 232 231 232 232 233 233 233 233 233 233 233 233 234 238 244 250 254 257 259 260 260 260 260 261 263 265 268 270 273 276 279 283 286 287 288 286 283 280 278 277 277 276 275 276 278 285 298 308 309 309 311 315 319 321 323 324 323 322 321 321 323
256 250 244 240 237 234 233 231 230 230 230 231 232 232 232 232 232 232 231 230 231 237 243 249 253 256 258 258 258 259 259 260 262 264 267 269 272 275 278 282 284 286 286 286 284 281 279 277 276 275 273 272 272 279 294 307 309 309 312 314 316 319 321 322 321 320 319 319 321
257 251 245 240 236 234 232 230 229 229 229 230 231 231 231 231 231 231 229 227 229 235 242 248 252 255 256 257 258 259 260 261 262 263 265 268 270 274 277 280 283 284 285 285 284 282 280 277 276 274 272 270 269 274 286 301 306 308 310 312 314 316 318 320 320 318 317 317 320
259 252 246 241 237 234 231 230 229 228 228 229 230 230 230 230 230 229 227 225 227 234 242 248 251 253 255 257 258 259 260 261 261 262 264 266 269 273 276 279 281 283 284 285 285 284 281 278 276 274 272 270 268 270 278 292 302 307 309 310 311 313 315 317 317 317 316 317 319
261 255 248 242 237 234 231 230 229 228 228 228 229 229 230 229 229 228 226 224 227 235 243 248 251 253 255 257 258 259 259 259 260 261 263 266 269 272 275 277 280 282 284 285 286 285 283 280 277 274 272 269 268 268 274 287 299 305 308 308 309 311 313 315 316 316 316 317 320
264 258 251 245 239 235 232 230 229 228 228 228 229 229 229 229 228 227 224 223 229 238 245 248 251 253 254 256 257 257 257 258 259 260 263 265 268 271 273 276 279 281 283 285 286 287 285 281 278 275 273 271 269 269 274 285 297 303 305 305 306 308 311 313 315 315 316 318 321
268 262 255 248 242 237 233 231 229 228 228 228 228 229 228 228 227 225 222 223 231 239 246 249 250 252 253 254 255 256 256 257 258 260 262 265 267 269 271 274 278 281 283 285 287 288 287 284 280 277 274 272 271 271 275 286 295 299 300 301 303 307 311 313 314 314 316 319 322
271 265 258 251 245 240 235 232 230 228 228 228 229 229 229 228 226 223 221 224 233 241 246 248 250 250 251 252 254 255 256 256 257 259 261 264 266 268 270 273 276 280 283 285 287 289 289 287 283 280 277 274 272 271 276 286 292 295 296 298 303 308 312 313 313 314 316 320 323
Height
1501 1501 1501 1502 1502 1502 1503 1503 1503 1503 1504 1504 1504 1504 1503 1503 1503 1503 1502 1502 1502 1501 1501 1501 1500 1500 1499 1499 1498 1497 1497 1496 1496 1495 1494 1493 1492 1492 1491 1490 1489 1488 1487 1487 1486 1485 1484 1483 1481 1480 1479 1478 1477 1476 1475 1474 1473 1472 1471 1470 1469 1467 1466 1465 1463 1462 1461 1460 1459
1498 1499 1499 1500 1500 1500 1500 1501 1501 1501 1501 1501 1501 1501 1501 1501 1501 1501 1501 1500 1500 1500 1499 1499 1498 1498 1497 1497 1496 1496 1495 1494 1494 1493 1492 1491 1491 1490 1489 1488 1487 1487 1486 1485 1484 1483 1482 1481 1480 1478 1477 1476 1475 1474 1473 1473 1472 1471 1469 1468 1467 1466 1464 1463 1461 1461 1459 1458 1457
1496 1496 1497 1497 1497 1497 1498 1498 1498 1499 1499 1499 1500 1500 1499 1499 1499 1499 1499 1498 1498 1497 1497 1496 1496 1496 1495 1495 1494 1494 1493 1492 1492 1491 1490 1490 1489 1488 1487 1486 1486 1485 1484 1483 1482 1481 1480 1479 1478 1476 1475 1474 1473 1472 1472 1471 1470 1469 1467 1466 1465 1464 1462 1461 1460 1459 1457 1456 1455
1493 1494 1494 1494 1494 1495 1495 1496 1496 1497 1497 1497 1498 1497 1497 1497 1497 1497 1497 1496 1496 1496 1495 1495 1494 1494 1493 1493 1492 1492 1491 1491 1490 1489 1488 1488 1487 1486 1486 1485 1484 1483 1482 1481 1481 1480 1478 1477 1476 1475 1474 1473 1472 1471 1470 1469 1468 1467 1466 1464 1463 1462 1461 1459 1458 1457 1456 1454 1453
1491 1491 1491 1492 1492 1493 1493 1494 1495 1495 1495 1496 1495 1495 1495 1495 1495 1495 1495 1494 1494 1494 1493 1493 1492 1492 1491 1491 1491 1490 1489 1489 1488 1487 1486 1486 1485 1485 1484 1483 1482 1481 1481 1480 1479 1478 1476 1476 1474 1473 1472 1471 1470 1469 1469 1468 1466 1465 1464 1463 1461 1460 1459 1457 1456 1455 1454 1453 1452
1488 1489 1489 1490 1490 1491 1491 1492 1492 1493 1493 1493 1493 1492 1493 1493 1493 1493 1493 1492 1492 1492 1491 1491 1491 1490 1490 1489 1489 1488 1487 1487 1486 1485 1485 1484 1483 1483 1482 1481 1481 1480 1479 1478 1477 1476 1475 1474 1472 1471 1471 1470 1469 1468 1467 1466 1465 1463 1462 1461 1460 1459 1457 1456 1455 1453 1452 1451 1450
1486 1486 1487 1487 1488 1489 1489 1490 1490 1491 1491 1491 1490 1490 1491 1491 1491 1491 1491 1490 1490 1490 1489 1489 1489 1488 1488 1487 1487 1486 1486 1485 1484 1484 1483 1482 1481 1481 1480 1479 1479 1478 1477 1476 1475 1474 1473 1472 1471 1470 1469 1468 1467 1466 1465 1465 1463 1462 1460 1459 1458 1457 1456 1454 1453 1452 1451 1449 1448
1483 1484 1485 1485 1486 1486 1487 1487 1488 1488 1488 1488 1488 1488 1488 1489 1489 1489 1488 1488 1488 1488 1487 1487 1487 1486 1486 1485 1485 1484 1484 1483 1482 1482 1481 1481 1480 1479 1478 1478 1477 1476 1475 1474 1473 1472 1471 1470 1469 1468 1467 1466 1465 1464 1464 1463 1461 1460 1459 1457 1456 1456 1454 1453 1452 1450 1449 1448 1447
1481 1481 1482 1483 1483 1484 1484 1485 1485 1485 1485 1485 1486 1486 1486 1487 1486 1486 1486 1486 1486 1486 1485 1485 1485 1484 1484 1483 1483 1482 1482 1481 1481 1480 1480 1479 1478 1477 1477 1476 1475 1474 1473 1473 1471 1471 1470 1468 1467 1466 1466 1465 1463 1462 1462 1461 1460 1458 1457 1456 1455 1454 1453 1452 1451 1449 1448 1446 1445
1477 1478 1479 1480 1481 1481 1482 1482 1482 1483 1483 1483 1484 1484 1484 1485 1484 1484 1484 1484 1484 1484 1483 1483 1483 1482 1482 1481 1481 1481 1480 1480 1479 1478 1478 1477 1476 1476 1475 1474 1473 1472 1471 1471 1470 1469 1468 1466 1466 1465 1464 1463 1462 1461 1460 1459 1458 1457 1456 1455 1453 1452 1451 1450 1449 1448 1446 1445 1443
1475 1476 1477 1477 1478 1479 1479 1480 1480 1480 1480 1481 1481 1482 1482 1482 1482 1482 1482 1482 1482 1481 1481 1481 1481 1481 1480 1480 1479 1479 1478 1478 1477 1476 1476 1475 1475 1474 1473 1472 1471 1471 1470 1469 1468 1467 1466 1465 1464 1463 1462 1461 1460 1459 1458 1458 1456 1456 1454 1453 1452 1451 1449 1449 1448 1447 1445 1443 1441
1472 1473 1474 1475 1476 1476 1477 1477 1477 1477 1478 1478 1479 1480 1480 1480 1481 1481 1481 1480 1480 1480 1480 1480 1479 1479 1478 1478 1477 1477 1476 1476 1476 1475 1474 1474 1473 1472 1471 1471 1470 1469 1468 1467 1466 1465 1464 1463 1462 1461 1460 1460 1459 1458 1457 1456 1455 1454 1453 1451 1451 1449 1448 1447 1446 1445 1443 1441 1440
1470 1471 1471 1472 1473 1474 1474 1474 1474 1475 1476 1476 1477 1477 1478 1478 1479 1479 1478 1478 1478 1478 1478 1478 1477 1477 1476 1476 1476 1475 1475 1474 1474 1473 1472 1472 1471 1471 1470 1469 1468 1467 1466 1466 1465 1463 1462 1461 1461 1460 1459 1458 1457 1456 1456 1455 1453 1452 1451 1450 1449 1448 1446 1446 1444 1443 1441 1440 1438
1467 1468 1469 1470 1470 1471 1471 1471 1472 1472 1473 1474 1475 1475 1476 1476 1476 1476 1476 1476 1476 1476 1476 1476 1475 1475 1475 1474 1474 1474 1473 1472 1472 1471 1471 1470 1469 1469 1468 1467 1466 1466 1465 1464 1463 1462 1461 1460 1459 1458 1457 1456 1455 1455 1454 1453 1452 1451 1450 1448 1447 1446 1445 1444 1442 1441 1439 1437 1435
1464 1465 1466 1466 1467 1468 1468 1469 1469 1470 1471 1472 1472 1473 1474 1474 1474 1474 1474 1474 1474 1474 1474 1473 1473 1473 1473 1472 1472 1471 1471 1471 1470 1469 1469 1468 1468 1467 1466 1466 1465 1464 1463 1462 1461 1460 1459 1458 1457 1456 1455 1454 1454 1453 1452 1451 1451 1449 1448 1447 1446 1445 1443 1442 1440 1439 1437 1435 1433
1461 1461 1463 1464 1464 1465 1465 1466 1467 1468 1469 1469 1470 1471 1472 1472 1472 1472 1472 1472 1472 1472 1471 1471 1471 1471 1471 1471 1470 1470 1469 1469 1468 1467 1467 1466 1466 1465 1465 1464 1463 1462 1461 1460 1459 1458 1457 1456 1456 1455 1454 1453 1452 1451 1451 1450 1449 1448 1447 1446 1445 1443 1442 1440 1438 1437 1435 1434 1432
1457 1458 1460 1460 1461 1462 1462 1463 1464 1465 1466 1467 1468 1469 1469 1470 1470 1470 1470 1470 1470 1470 1469 1469 1469 1469 1469 1468 1468 1468 1467 1466 1466 1466 1465 1465 1464 1464 1463 1462 1461 1461 1460 1459 1457 1456 1456 1455 1454 1453 1452 1451 1451 1450 1449 1448 1447 1446 1446 1445 1443 1442 1440 1439 1437 1435 1434 1432 1430
1454 1455 1456 1457 1458 1459 1460 1461 1462 1463 1464 1465 1466 1466 1467 1467 1468 1468 1467 1467 1467 1467 1467 1467 1467 1467 1467 1466 1466 1466 1465 1465 1464 1464 1463 1463 1462 1462 1461 1461 1460 1459 1458 1457 1456 1455 1454 1453 1452 1451 1451 1450 1449 1448 1447 1446 1446 1445 1444 1443 1442 1440 1439 1437 1435 1434 1432 1430 1428
1451 1452 1453 1454 1455 1456 1457 1459 1460 1461 1462 1463 1464 1464 1465 1465 1465 1466 1465 1466 1466 1466 1466 1466 1465 1465 1465 1465 1464 1464 1463 1463 1462 1462 1461 1461 1461 1460 1459 1459 1458 1457 1456 1455 1454 1453 1452 1451 1451 1450 1449 1448 1447 1447 1446 1445 1444 1443 1442 1441 1440 1438 1437 1435 1434 1432 1431 1429 1426
1448 1449 1450 1451 1453 1454 1455 1456 1457 1459 1460 1461 1461 1462 1463 1463 1463 1463 1463 1463 1464 1464 1464 1463 1463 1463 1463 1463 1462 1462 1461 1461 1460 1460 1459 1459 1459 1458 1457 1457 1456 1456 1455 1454 1453 1451 1451 1450 1449 1448 1447 1446 1446 1445 1444 1444 1443 1441 1440 1439 1437 1436 1435 1433 1432 1431 1429 1427 1425
1445 1446 1448 1449 1451 1452 1453 1454 1455 1456 1457 1458 1459 1460 1460 1461 1461 1461 1461 1461 1462 1461 1461 1461 1461 1461 1461 1461 1461 1460 1460 1459 1458 1458 1457 1457 1457 1456 1456 1455 1454 1454 1453 1452 1451 1450 1449 1448 1447 1446 1446 1445 1444 1444 1443 1442 1441 1440 1438 1437 1436 1434 1433 1432 1431 1429 1427 1426 1424
1443 1444 1446 1447 1448 1450 1451 1452 1453 1454 1455 1456 1456 1457 1458 1458 1459 1459 1459 1460 1460 1459 1459 1459 1459 1459 1459 1459 1459 1458 1458 1457 1456 1456 1456 1455 1455 1455 1454 1453 1453 1452 1451 1450 1449 1448 1447 1446 1446 1445 1444 1443 1443 1442 1441 1440 1439 1437 1436 1435 1434 1432 1431 1430 1429 1427 1426 1424 1423
1441 1442 1443 1445 1446 1447 1448 1449 1450 1451 1452 1453 1454 1455 1455 1456 1456 1457 1457 1457 1457 1457 1457 1457 1457 1457 1457 1457 1457 1456 1456 1455 1455 1454 1454 1453 1453 1453 1452 1452 1451 1450 1449 1449 1448 1447 1446 1445 1444 1443 1443 1442 1441 1440 1439 1438 1436 1435 1433 1433 1432 1431 1430 1429 1427 1426 1425 1424 1422
1438 1440 1441 1442 1443 1444 1445 1446 1447 1448 1449 1450 1451 1452 1453 1453 1454 1454 1455 1455 1455 1455 1455 1455 1456 1456 1456 1456 1455 1455 1454 1454 1453 1453 1452 1452 1451 1451 1450 1450 1449 1448 1448 1447 1446 1445 1444 1443 1442 1441 1441 1440 1439 1438 1437 1436 1435 1433 1433 1432 1431 1430 1429 1428 1426 1426 1424 1423 1421
1436 1437 1438 1439 1440 1441 1442 1443 1444 1445 1446 1447 1448 1449 1450 1451 1451 1452 1452 1452 1453 1453 1453 1453 1453 1454 1454 1453 1453 1453 1452 1452 1451 1451 1451 1450 1450 1449 1449 1448 1447 1447 1446 1445 1445 1444 1443 1442 1441 1439 1439 1438 1437 1437 1436 1434 1433 1433 1432 1431 1430 1429 1427 1426 1426 1425 1423 1421 1420
1433 1434 1435 1436 1437 1438 1439 1440 1441 1442 1444 1445 1446 1446 1447 1448 1449 1450 1450 1450 1451 1451 1451 1451 1451 1451 1451 1451 1451 1451 1451 1450 1450 1449 1449 1448 1448 1447 1447 1446 1446 1445 1445 1444 1443 1442 1441 1441 1440 1438 1437 1437 1436 1435 1434 1433 1433 1432 1431 1430 1429 1427 1426 1425 1424 1423 1421 1420 1418
1430 1431 1431 1433 1434 1435 1436 1437 1439 1440 1441 1442 1443 1444 1445 1446 1446 1447 1448 1448 1448 1448 1449 1449 1449 1449 1450 1450 1449 1449 1449 1448 1448 1447 1447 1446 1446 1446 1445 1445 1444 1444 1443 1442 1442 1441 1440 1439 1438 1437 1436 1436 1435 1434 1433 1432 1432 1431 1430 1429 1427 1426 1425 1423 1422 1421 1419 1418 1417
1426 1427 1429 1430 1431 1432 1433 1435 1436 1437 1438 1439 1440 1441 1442 1443 1444 1445 1445 1446 1446 1446 1446 1446 1447 1447 1448 1447 1447 1447 1447 1447 1446 1446 1445 1445 1444 1444 1443 1443 1442 1442 1441 1441 1440 1439 1439 1438 1437 1436 1436 1435 1434 1433 1433 1432 1431 1430 1429 1427 1426 1425 1423 1422 1421 1419 1418 1416 1415
1424 1425 1426 1426 1427 1429 1430 1432 1433 1434 1436 1437 1438 1439 1440 1441 1441 1442 1443 1443 1444 1444 1444 1445 1445 1446 1446 1446 1446 1446 1445 1445 1444 1444 1443 1443 1442 1442 1441 1441 1441 1440 1440 1439 1439 1438 1437 1436 1436 1435 1434 1434 1433 1432 1432 1431 1430 1429 1427 1426 1425 1423 1422 1421 1419 1417 1416 1415 1413
1421 1421 1422 1423 1424 1426 1427 1428 1430 1431 1433 1434 1435 1436 1437 1437 1438 1439 1440 1441 1441 1442 1442 1443 1443 1444 1444 1444 1444 1444 1443 1443 1442 1442 1441 1441 1441 1440 1440 1440 1439 1438 1438 1438 1437 1436 1436 1435 1434 1433 1433 1432 1432 1431 1431 1430 1429 1427 1426 1425 1423 1422 1421 1419 1417 1416 1415 1413 1412
1417 1418 1419 1420 1421 1422 1424 1425 1427 1429 1430 1431 1432 1433 1434 1435 1436 1437 1438 1439 1439 1440 1441 1441 1441 1441 1442 1442 1442 1442 1441 1441 1441 1440 1440 1439 1439 1439 1438 1438 1437 1437 1436 1436 1435 1435 1434 1433 1432 1432 1431 1431 1431 1430 1429 1428 1427 1426 1424 1423 1421 1420 1419 1417 1416 1415 1413 1412 1411
1414 1415 1416 1417 1418 1419 1421 1422 1424 1425 1426 1427 1428 1430 1431 1432 1433 1434 1435 1436 1437 1438 1438 1439 1439 1440 1440 1440 1440 1440 1440 1439 1439 1439 1438 1438 1437 1437 1436 1436 1436 1435 1435 1434 1434 1433 1432 1431 1431 1430 1430 1429 1429 1428 1427 1427 1426 1424 1423 1421 1420 1419 1417 1416 1415 1413 1412 1411 1409
1411 1411 1412 1413 1414 1416 1418 1419 1421 1422 1423 1424 1425 1426 1428 1429 1431 1432 1433 1434 1435 1435 1436 1436 1437 1438 1438 1438 1438 1438 1438 1437 1437 1437 1436 1436 1436 1435 1435 1434 1434 1433 1433 1432 1432 1431 1431 1430 1429 1429 1428 1428 1427 1426 1426 1425 1424 1423 1421 1420 1418 1417 1416 1415 1413 1412 1411 1410 1408
1407 1408 1409 1410 1411 1413 1414 1416 1417 1418 1420 1421 1422 1424 1425 1427 1428 1429 1430 1431 1432 1433 1434 1435 1435 1436 1436 1436 1436 1436 1436 1436 1435 1435 1435 1434 1434 1433 1433 1432 1432 1432 1431 1431 1430 1429 1429 1428 1427 1427 1426 1426 1426 1425 1424 1423 1422 1421 1420 1418 1417 1416 1415 1413 1412 1411 1410 1409 1407
1404 1405 1405 1406 1407 1409 1411 1412 1413 1415 1416 1417 1419 1421 1422 1424 1425 1426 1427 1429 1430 1431 1431 1432 1433 1433 1434 1434 1434 1434 1434 1434 1434 1433 1433 1432 1432 1431 1431 1431 1430 1430 1430 1429 1428 1428 1427 1426 1426 1425 1425 1424 1423 1422 1422 1422 1421 1420 1418 1416 1415 1414 1413 1412 1411 1410 1409 1407 1406
1401 1401 1402 1403 1404 1405 1407 1408 1410 1411 1412 1414 1416 1418 1420 1421 1423 1424 1425 1426 1427 1428 1429 1430 1431 1431 1431 1432 1432 1432 1432 1432 1432 1431 1431 1431 1430 1430 1429 1429 1429 1428 1428 1427 1426 1426 1425 1425 1424 1423 1423 1422 1421 1421 1420 1420 1419 1418 1416 1415 1414 1413 1412 1411 1410 1409 1408 1406 1405
1397 1398 1399 1400 1401 1402 1403 1405 1406 1408 1409 1411 1413 1415 1417 1419 1421 1422 1423 1424 1425 1426 1427 1428 1428 1429 1429 1430 1430 1431 1431 1430 1430 1430 1429 1429 1428 1428 1427 1427 1427 1426 1426 1426 1425 1424 1424 1423 1422 1422 1421 1421 1420 1419 1419 1418 1418 1416 1415 1413 1412 1411 1411 1410 1409 1408 1406 1405 1404
1395 1396 1396 1397 1398 1399 1400 1401 1403 1405 1406 1408 1411 1413 1415 1417 1418 1420 1421 1422 1423 1424 1425 1426 1426 1426 1427 1428 1428 1429 1429 1428 1428 1427 1427 1427 1426 1426 1426 1425 1425 1425 1425 1424 1423 1422 1422 1421 1421 1420 1420 1419 1418 1418 1417 1417 1416 1415 1414 1412 1411 1410 1409 1408 1407 1406 1405 1404 1403
1392 1393 1394 1395 1396 1396 1397 1399 1400 1402 1404 1406 1409 1411 1413 1415 1416 1418 1419 1420 1421 1422 1422 1423 1424 1424 1425 1426 1426 1426 1426 1426 1426 1426 1425 1425 1425 1425 1424 1424 1423 1423 1423 1422 1421 1421 1420 1420 1419 1418 1418 1417 1417 1416 1416 1415 1415 1414 1413 1411 1410 1409 1408 1407 1406 1405 1404 1403 1402
1390 1391 1392 1393 1394 1394 1395 1396 1398 1401 1403 1405 1407 1409 1411 1412 1415 1416 1417 1418 1419 1420 1421 1421 1422 1422 1423 1424 1424 1424 1424 1424 1424 1424 1424 1423 1423 1423 1422 1422 1421 1421 1421 1421 1420 1419 1419 1418 1417 1417 1416 1416 1415 1415 1414 1414 1414 1413 1411 1410 1409 1408 1407 1406 1405 1404 1403 1401 1401
1388 1389 1390 1391 1392 1393 1394 1395 1397 1399 1402 1404 1406 1407 1409 1411 1413 1415 1416 1416 1417 1418 1418 1419 1420 1420 1421 1421 1421 1422 1422 1422 1422 1422 1422 1422 1421 1421 1421 1420 1420 1420 1419 1419 1418 1417 1417 1416 1416 1415 1415 1414 1414 1413 1413 1413 1412 1411 1410 1408 1407 1406 1405 1404 1403 1402 1401 1401 1399